Wind_Speed
38 38 39 39 38 38 38 38 39 39 38 37 39 40 41 42 43 44 44 44 44 43 44 45 44 44 43 42 42 42 42 42 43 43 43 44 44 44 44 44 43 43 43 44
39 38 39 40 38 38 38 38 39 39 38 38 40 41 42 42 43 43 43 44 45 44 44 44 44 43 42 42 43 43 42 41 42 42 42 43 43 43 42 41 41 41 42 43
40 40 40 39 37 37 37 37 38 39 38 39 40 40 41 42 42 42 43 44 45 45 44 44 43 42 42 42 42 41 41 41 40 40 41 41 40 40 39 40 40 40 41 42
40 39 40 38 36 36 36 37 38 39 38 39 39 40 41 41 42 43 44 44 44 44 43 43 42 42 42 41 40 41 40 40 39 39 39 38 38 38 39 39 39 40 40 40
39 40 40 37 37 37 37 37 37 38 38 38 39 40 40 40 41 41 42 43 43 43 43 42 42 42 41 40 40 40 40 39 39 38 38 38 38 38 38 39 39 39 39 40
39 39 39 37 37 37 38 38 37 37 37 38 39 39 39 40 40 41 42 43 43 43 43 42 41 40 40 39 39 39 39 38 38 38 38 37 37 38 38 38 38 38 38 38
36 37 37 36 37 37 37 37 37 37 37 38 38 39 39 39 40 41 42 43 43 43 43 42 41 39 39 38 38 38 37 37 37 38 38 38 38 38 38 38 38 37 37 37
35 36 36 35 36 36 37 37 37 37 37 38 38 39 39 40 40 41 41 42 43 43 42 41 40 39 38 38 38 38 38 38 38 38 38 38 38 37 37 37 36 36 35 34
35 35 35 34 35 36 36 37 37 37 37 38 38 39 39 40 40 41 41 42 42 41 40 40 39 39 39 38 37 37 37 37 37 37 37 37 36 36 35 35 34 33 33 32
35 34 34 35 35 36 36 37 37 37 38 38 39 40 40 40 41 40 40 40 40 40 40 39 38 38 38 38 38 37 36 35 35 35 35 35 35 34 33 32 31 31 30 30
34 35 35 35 35 36 36 36 37 37 38 38 39 40 40 40 40 40 39 39 39 39 38 38 37 38 37 36 35 35 34 33 33 33 32 32 32 32 30 30 29 29 29 29
34 34 35 35 35 35 36 36 37 37 37 38 39 39 40 39 39 38 38 38 38 37 37 36 36 36 35 34 33 33 32 32 32 32 31 30 29 29 28 28 28 28 27 27
34 35 35 35 35 36 36 36 36 36 37 38 38 39 39 38 37 36 36 36 36 35 35 34 34 33 33 33 33 32 31 31 31 30 29 28 27 27 27 27 28 27 27 26
35 36 36 36 36 36 36 36 36 37 37 37 37 37 37 36 36 36 36 35 35 34 34 33 33 32 32 31 31 31 30 29 28 27 27 27 26 26 27 27 27 27 27 26
35 36 36 36 36 35 35 36 36 36 36 36 36 36 35 35 35 35 35 35 34 33 32 32 32 32 31 31 30 29 28 27 27 26 26 26 26 26 26 26 26 26 26 26
34 35 35 35 35 35 34 34 34 34 34 34 34 34 34 34 34 33 33 33 32 32 32 31 31 31 30 30 29 28 27 26 25 25 25 25 25 25 25 25 25 25 24 24
33 33 34 34 34 34 34 34 33 34 34 34 34 34 33 33 32 32 32 32 32 31 31 31 30 30 29 29 28 27 26 25 25 24 25 25 25 25 24 24 23 23 22 22
33 33 33 33 33 33 33 33 33 33 33 33 33 33 33 32 31 31 31 31 32 31 30 29 29 28 28 27 26 25 24 24 24 25 25 24 24 24 23 22 22 21 21 21
31 32 32 32 32 32 32 32 32 33 33 32 32 32 31 31 31 31 30 30 30 29 29 28 27 27 26 25 24 23 23 23 24 24 24 23 22 22 22 21 20 20 20 20
29 30 30 31 31 31 31 30 31 31 31 30 30 30 30 30 29 29 29 29 28 27 27 26 26 25 25 24 23 23 22 22 22 22 22 21 21 21 20 19 19 19 19 19
27 28 29 29 29 29 29 29 29 29 29 28 28 28 28 27 27 27 27 27 27 26 26 25 24 24 24 24 23 22 22 22 21 21 20 20 20 20 19 18 18 18 18 18
27 27 28 28 28 28 28 28 28 27 28 27 27 27 26 26 26 26 26 26 26 26 25 25 24 24 23 23 22 22 21 21 20 20 20 19 19 19 18 18 17 17 17 17
26 27 27 27 27 27 27 27 27 26 26 25 25 25 25 25 26 26 26 26 26 26 25 25 24 23 23 22 21 21 20 20 20 20 19 19 19 18 18 17 17 17 17 17
26 26 26 26 26 26 26 26 25 25 25 25 25 25 25 25 26 26 26 26 25 25 25 24 24 23 22 21 21 20 20 20 20 20 19 19 18 18 18 17 17 17 17 17
26 26 26 26 26 25 25 25 25 25 25 25 25 25 25 25 25 25 25 25 25 24 24 23 23 22 21 21 20 20 20 20 19 19 19 18 18 18 18 18 17 17 17 17
26 26 25 25 25 24 24 24 24 24 24 24 24 24 24 24 25 25 25 24 24 23 23 23 22 21 21 21 20 20 20 20 19 19 19 18 18 18 18 18 18 18 18 17
25 25 25 24 24 24 24 23 24 24 24 24 24 24 24 24 24 24 24 23 23 23 23 22 22 21 21 21 20 20 20 20 20 19 19 19 19 18 18 18 18 18 18 18
Wind_Direction
288 289 290 291 291 291 292 293 293 295 295 295 294 294 295 296 296 296 296 296 297 297 296 296 295 293 291 291 290 290 288 287 286 285 284 284 284 283 282 281 278 276 273 271
288 288 288 289 290 291 292 293 294 295 296 296 295 295 296 296 297 296 296 296 297 297 296 296 295 293 291 292 292 291 289 287 287 286 286 286 285 283 282 281 279 277 274 272
288 289 288 289 292 292 293 294 295 296 297 297 297 297 297 297 297 298 298 298 298 298 297 296 295 293 293 294 292 290 289 289 288 288 288 287 285 283 282 281 280 279 277 274
287 288 289 291 292 293 294 295 296 297 298 298 299 298 298 297 297 298 299 300 300 299 299 298 296 294 294 294 292 291 290 289 289 289 288 287 285 284 283 281 280 279 278 277
288 289 290 291 292 293 294 295 297 298 299 299 299 300 300 299 299 299 299 300 301 301 300 298 296 295 294 294 293 292 292 291 289 288 288 287 286 285 284 282 281 281 279 278
289 289 290 293 294 294 294 294 297 297 299 299 300 300 301 301 300 299 299 300 301 301 300 300 298 296 295 294 294 294 293 291 289 288 288 287 287 285 283 282 282 282 281 279
289 289 290 293 295 295 294 296 296 297 299 300 300 301 301 302 301 300 300 301 301 301 301 301 299 298 297 296 295 294 293 291 290 290 289 287 286 285 284 283 283 282 282 280
289 290 292 294 294 295 295 295 295 296 298 300 301 301 302 302 303 302 302 302 302 302 302 301 300 299 299 298 296 294 293 292 291 290 289 287 286 284 284 283 283 282 282 280
287 290 290 291 292 292 293 294 295 296 298 300 301 302 302 303 304 304 304 303 303 303 302 302 301 300 300 299 297 295 294 293 292 290 289 289 287 285 284 283 282 282 280 280
286 288 288 289 290 290 291 293 294 296 297 299 301 302 303 304 304 304 304 304 304 303 302 302 301 301 301 301 299 297 296 295 293 291 290 289 289 286 283 282 281 281 280 279
284 286 287 289 290 290 291 293 295 296 298 300 302 303 304 304 304 304 305 305 305 304 303 303 302 302 303 303 302 300 298 297 296 295 293 291 289 286 283 281 280 279 279 279
285 287 289 289 290 291 293 294 296 298 299 301 303 304 304 304 304 305 305 306 306 306 305 305 304 304 304 304 303 301 299 299 298 297 295 293 291 288 284 280 279 279 280 279
284 286 288 288 289 291 292 294 295 297 299 301 302 304 304 305 305 305 306 306 307 307 307 307 306 305 305 304 303 301 300 299 299 297 296 295 293 289 285 284 283 282 282 281
284 286 287 288 288 290 291 293 295 296 299 301 302 304 304 305 305 306 306 307 307 308 307 308 307 307 306 306 305 303 302 300 299 298 297 296 295 291 287 284 284 284 284 284
284 286 288 288 288 289 291 293 294 296 299 301 303 305 305 306 307 307 307 307 308 308 308 307 308 308 308 307 307 304 302 300 300 299 298 297 296 293 290 287 284 283 283 284
286 287 288 289 289 289 292 293 294 297 300 301 303 305 306 307 308 308 309 309 309 309 308 308 308 309 308 308 307 304 302 300 299 299 299 298 297 296 292 289 286 284 284 284
289 289 289 290 290 290 292 294 296 298 299 300 302 304 306 307 308 308 309 310 311 311 310 310 309 309 308 308 306 304 302 301 300 299 300 299 298 296 294 291 287 285 285 284
291 292 292 292 292 292 292 293 296 298 299 300 301 303 304 305 306 308 309 310 311 311 312 311 310 309 309 309 308 305 303 302 302 302 301 300 298 296 294 291 288 287 287 286
294 295 295 294 294 294 295 295 297 298 299 300 301 302 303 303 305 307 308 310 311 311 312 312 311 310 311 311 310 308 306 305 305 304 303 302 300 298 295 291 289 288 288 287
296 296 296 295 295 296 297 298 298 299 300 300 301 302 303 304 305 307 308 309 311 312 313 313 312 312 311 311 310 309 308 307 307 306 305 304 303 301 297 293 291 290 288 287
297 298 299 299 299 299 300 301 301 301 301 301 302 303 304 305 306 307 309 310 311 312 314 314 313 313 312 310 310 309 307 307 309 309 310 308 306 303 300 296 293 292 290 288
299 299 300 301 302 302 302 302 303 303 303 304 304 305 305 305 306 307 309 309 310 311 312 312 312 312 311 309 308 308 308 308 308 309 310 309 307 305 302 299 295 294 293 291
301 301 301 302 303 304 304 304 304 305 305 306 306 306 305 306 305 306 308 308 308 309 310 311 311 311 310 310 309 308 308 309 309 308 308 307 306 305 304 302 299 297 296 294
301 302 302 303 304 304 305 305 306 307 307 307 307 307 307 307 306 307 308 309 310 309 308 309 309 309 309 308 308 308 309 309 309 309 307 306 305 305 305 305 303 300 297 295
302 304 304 303 304 305 305 306 306 308 308 308 308 309 309 308 308 308 309 311 311 311 310 309 308 307 307 307 307 307 308 308 309 309 308 306 305 305 305 305 304 302 299 296
304 306 306 305 305 305 305 306 307 308 308 309 309 310 310 310 310 310 310 311 311 311 311 310 309 308 308 307 306 306 306 307 308 309 309 308 306 304 304 304 304 303 301 299
305 306 307 307 307 306 306 307 307 307 308 309 308 309 310 311 312 312 312 312 312 312 311 311 311 309 309 308 307 305 305 306 306 307 306 306 306 304 303 302 303 302 301 299
Height
5642 5639 5636 5633 5630 5626 5622 5619 5615 5613 5609 5606 5600 5595 5591 5587 5582 5578 5574 5569 5565 5560 5555 5550 5545 5540 5535 5531 5527 5522 5519 5515 5512 5508 5505 5502 5499 5496 5493 5491 5489 5487 5486 5485
5631 5628 5624 5621 5620 5616 5612 5608 5605 5601 5599 5595 5589 5585 5580 5576 5571 5567 5562 5558 5553 5548 5543 5538 5533 5528 5524 5519 5515 5510 5506 5503 5499 5496 5492 5489 5486 5483 5480 5478 5476 5475 5473 5472
5619 5616 5612 5611 5610 5606 5602 5599 5595 5590 5588 5583 5578 5573 5569 5564 5560 5555 5551 5546 5541 5536 5531 5526 5521 5517 5512 5507 5503 5499 5495 5491 5487 5484 5480 5477 5474 5471 5469 5467 5464 5462 5461 5459
5607 5605 5601 5603 5599 5595 5591 5588 5584 5580 5576 5572 5567 5563 5558 5554 5549 5544 5539 5534 5529 5524 5519 5514 5509 5504 5500 5495 5491 5487 5483 5479 5475 5472 5468 5465 5462 5460 5457 5455 5453 5451 5449 5447
5595 5592 5590 5591 5588 5584 5580 5578 5574 5569 5565 5561 5556 5552 5548 5543 5538 5533 5528 5523 5518 5513 5508 5503 5498 5493 5488 5484 5479 5475 5471 5467 5463 5460 5457 5454 5451 5448 5446 5443 5441 5438 5436 5435
5585 5581 5579 5581 5578 5572 5569 5567 5564 5559 5555 5550 5546 5542 5539 5533 5527 5522 5517 5512 5507 5502 5497 5492 5486 5481 5477 5472 5468 5464 5459 5456 5452 5449 5446 5443 5440 5437 5434 5431 5429 5427 5424 5422
5574 5571 5569 5570 5566 5562 5560 5557 5552 5548 5544 5540 5536 5532 5527 5522 5517 5512 5506 5501 5496 5491 5485 5480 5475 5470 5466 5461 5457 5452 5448 5444 5441 5437 5434 5431 5428 5425 5422 5420 5417 5415 5413 5410
5565 5562 5563 5559 5555 5552 5549 5544 5541 5537 5534 5530 5526 5521 5516 5511 5506 5501 5496 5490 5485 5480 5474 5469 5464 5460 5455 5450 5446 5441 5437 5433 5429 5425 5422 5419 5416 5413 5410 5408 5405 5403 5401 5399
5556 5555 5551 5547 5544 5541 5537 5534 5530 5527 5524 5520 5515 5511 5506 5501 5496 5490 5485 5479 5474 5469 5463 5458 5453 5449 5444 5439 5435 5430 5426 5421 5417 5413 5410 5407 5404 5401 5399 5396 5394 5392 5390 5388
5545 5543 5540 5537 5533 5530 5527 5523 5520 5517 5513 5509 5505 5500 5495 5490 5485 5480 5474 5469 5463 5458 5453 5448 5443 5438 5433 5429 5424 5419 5415 5411 5407 5403 5399 5396 5393 5390 5388 5386 5384 5382 5380 5379
5533 5532 5529 5527 5523 5520 5517 5513 5510 5506 5503 5499 5494 5490 5485 5480 5474 5469 5464 5458 5453 5447 5442 5437 5432 5428 5423 5418 5414 5409 5405 5401 5397 5393 5389 5386 5382 5380 5377 5376 5374 5373 5371 5370
5523 5521 5518 5516 5513 5510 5507 5504 5500 5497 5493 5488 5484 5479 5474 5469 5464 5459 5454 5448 5443 5437 5432 5427 5422 5418 5413 5409 5404 5400 5396 5391 5387 5383 5380 5376 5373 5370 5368 5367 5365 5364 5362 5360
5513 5510 5508 5505 5503 5500 5497 5493 5490 5486 5483 5478 5473 5469 5464 5459 5454 5449 5444 5438 5433 5428 5423 5418 5413 5409 5404 5400 5395 5391 5387 5383 5379 5375 5371 5368 5365 5362 5360 5358 5356 5355 5353 5352
5502 5500 5497 5495 5493 5490 5486 5483 5480 5476 5472 5468 5463 5458 5453 5449 5444 5439 5434 5429 5424 5419 5414 5409 5405 5400 5396 5391 5387 5382 5378 5374 5371 5367 5364 5360 5357 5355 5352 5351 5349 5347 5345 5344
5492 5489 5487 5484 5482 5479 5476 5472 5469 5465 5461 5457 5453 5448 5444 5439 5434 5430 5425 5420 5415 5410 5405 5401 5396 5392 5387 5383 5379 5374 5370 5367 5363 5360 5356 5353 5350 5347 5345 5343 5341 5339 5338 5336
5482 5479 5476 5474 5471 5468 5465 5462 5458 5455 5451 5447 5443 5438 5434 5430 5425 5420 5416 5411 5406 5401 5397 5392 5388 5384 5379 5375 5371 5367 5363 5359 5356 5353 5349 5346 5343 5340 5338 5336 5333 5332 5330 5329
5472 5469 5466 5464 5461 5458 5455 5452 5448 5445 5441 5437 5433 5429 5425 5421 5416 5412 5407 5402 5398 5393 5389 5384 5380 5375 5371 5367 5363 5359 5356 5352 5349 5345 5342 5339 5336 5333 5331 5328 5326 5325 5323 5322
5462 5459 5456 5453 5450 5447 5445 5441 5438 5435 5431 5427 5423 5420 5416 5412 5408 5403 5399 5394 5390 5385 5381 5376 5372 5368 5364 5360 5356 5352 5349 5345 5342 5339 5335 5332 5329 5327 5324 5322 5320 5318 5317 5315
5452 5450 5447 5443 5440 5437 5434 5431 5428 5425 5421 5417 5414 5410 5406 5403 5399 5395 5390 5386 5382 5377 5373 5368 5364 5360 5356 5353 5349 5345 5342 5339 5335 5332 5329 5326 5323 5320 5318 5316 5314 5312 5310 5309
5444 5441 5437 5434 5431 5428 5425 5422 5418 5415 5412 5408 5404 5401 5397 5394 5390 5386 5382 5378 5374 5370 5366 5362 5358 5354 5350 5346 5342 5339 5336 5333 5329 5326 5323 5319 5317 5314 5312 5309 5307 5306 5304 5303
5435 5432 5429 5426 5422 5419 5416 5413 5409 5406 5403 5399 5396 5392 5389 5385 5382 5378 5375 5371 5367 5363 5359 5355 5351 5347 5343 5340 5336 5333 5330 5327 5324 5320 5317 5314 5311 5308 5306 5304 5302 5300 5298 5297
5427 5424 5421 5418 5414 5411 5408 5404 5401 5398 5395 5391 5388 5384 5381 5378 5374 5371 5367 5364 5360 5356 5352 5348 5345 5341 5337 5334 5330 5327 5324 5321 5318 5315 5312 5309 5306 5304 5301 5299 5297 5295 5293 5291
5420 5416 5413 5410 5406 5403 5400 5397 5394 5390 5387 5384 5380 5377 5373 5370 5367 5364 5360 5357 5353 5349 5345 5342 5338 5334 5331 5328 5324 5321 5318 5315 5312 5310 5307 5304 5301 5299 5296 5294 5292 5290 5288 5286
5412 5409 5406 5402 5399 5396 5392 5389 5386 5383 5380 5376 5373 5369 5366 5363 5359 5356 5353 5349 5345 5342 5338 5335 5331 5328 5325 5322 5319 5316 5313 5310 5307 5304 5302 5299 5297 5294 5292 5289 5287 5285 5283 5281
5405 5401 5398 5395 5392 5388 5385 5382 5379 5376 5373 5369 5366 5362 5359 5356 5352 5349 5345 5342 5338 5335 5331 5328 5325 5322 5319 5316 5313 5310 5307 5305 5302 5299 5297 5294 5292 5289 5287 5285 5282 5280 5278 5276
5397 5394 5391 5387 5384 5381 5378 5375 5372 5369 5366 5362 5359 5356 5352 5349 5345 5342 5338 5335 5331 5328 5325 5321 5318 5315 5313 5310 5307 5304 5302 5299 5297 5294 5292 5289 5287 5284 5282 5280 5278 5275 5273 5271
5390 5387 5384 5381 5377 5374 5371 5368 5365 5362 5359 5356 5352 5349 5345 5342 5338 5335 5332 5328 5325 5322 5318 5315 5312 5309 5307 5304 5301 5299 5296 5294 5291 5289 5286 5284 5281 5279 5277 5274 5272 5270 5268 5266